Tracking 29892 objects as of 21-Nov-2024
HD Live streaming from Space Station
objects crossing your sky now

THORAD AGENA D DEB

Track THORAD AGENA D DEB now!
10-day predictions


NORAD ID: 4155
Int'l Code: 1969-082X
Perigee: 735.0 km
Apogee: 822.5 km
Inclination: 70.0 °
Period: 100.3 minutes
Semi major axis: 7149 km
RCS: 0.0382 m2 (small)
Launch date: September 30, 1969
Source: United States (US)
Launch site: AIR FORCE WESTERN TEST RANGE (AFWTR)

Note: This is SATELLITE DEBRIS
Your satellite tracking list
Your tracking list is empty




NASA's NSSDC Master Catalog

Two Line Element Set (TLE):
1 04155U 69082X   24325.70352965  .00003438  00000-0  11755-2 0  9992
2 04155  70.0486 286.3017 0061225 279.5122  79.9089 14.36034883857139
Source of the keplerian elements: AFSPC